AirNav   Air Wisconsin pilot careers
 
 1316 users online  

A13 Bold Airport
Anchorage, Alaska, USA

GOING TO ANCHORAGE?


FAA INFORMATION EFFECTIVE 06 DECEMBER 2018

Location

FAA Identifier: A13
Lat/Long: 61-20-28.8200N / 148-59-55.9700W
61-20.480333N / 148-59.932833W
61.3413389 / -148.9988806
(estimated)
Elevation: 900 ft. / 274 m (estimated)
Variation: 25E (1985)
From city: 30 miles ENE of ANCHORAGE, AK
Time zone: UTC -9 (UTC -8 during Daylight Saving Time)
Zip code: 99567

Airport Operations

Airport use: Open to the public
Activation date: 08/1990
Control tower: no
ARTCC: ANCHORAGE CENTER
FSS: KENAI FLIGHT SERVICE STATION [907-283-8469]
NOTAMs facility: ENA (NOTAM-D service available)
Attendance: UNATNDD
Wind indicator: yes, TREES GROWING UP AROUND WINDSOCK; WIND INDICATOR UNRELIABLE.
Segmented circle: no

Airport Communications

CTAF: 122.9
WX AWOS-3P at BCV (15 nm W): 135.55 (907-688-0826)
WX ASOS at PAQ (15 nm N): 134.75 (907-746-6675)
WX AWOS-3 at FRN (19 nm W): PHONE 907-384-0132

Nearby radio navigation aids

VOR radial/distance  VOR name  Freq  Var
TEDr051/29.6ANCHORAGE VOR/DME113.1518E
BGQr097/31.0BIG LAKE VORTAC112.5019E

 
NDB name  Hdg/Dist  Freq  Var  ID
CAMPBELL LAKE055/31.933816ECMQ -.-. -- --.-

Airport Services

Parking: tiedowns

Runway Information

Runway 14/32

Dimensions: 1000 x 15 ft. / 305 x 5 m
Surface: gravel, in poor condition
RY 14/32 RUTTED AND UNEVEN. TREES ENCROACHING ON BOTH SIDES OF RY.
RY 14/32 SLOPES DOWN TOWARD LAKE. RY 14 GENTLE HUMP APPROACH END.
RUNWAY 14  RUNWAY 32
Traffic pattern: leftleft
Obstructions: none27 ft. trees, 37 ft. left and right of centerline

Airport Ownership and Management from official FAA records

Ownership: Publicly-owned
Owner: STATE OF AK DNR
18620 SEWARD HWY
ANCHORAGE, AK 99516
Phone 907-688-0910
Manager: KEITH WILSON, PARK RANGER
DNR, DIV OF PARKS & OUTDOOR REC, 18620 SEWARD HWY
ANCHORAGE, AK 99516
Phone 907-688-0910

Airport Operational Statistics

Aircraft operations: 200/year *
100% transient general aviation
* for 12-month period ending 31 December 2013

Additional Remarks

AIRSTRIP LOCATED INSIDE CHUGACH STATE PARK.
HIKERS & VEHICLES INVOF AIRSTRIP.
SHARPLY RISING TERRAIN EAST; SOUTH & WEST QUADRANTS.
LANDINGS NOT ALLOWED ON LAKE.
BRUSH UP TO 30 INCHES HIGH ON NE HALF OF RWY, FULL LENGTH.

Instrument Procedures

There are no published instrument procedures at A13.

Some nearby airports with instrument procedures:

PAAQ - Warren "Bud" Woods Palmer Municipal Airport (15 nm N)
PAFR - Bryant Army Airfield Heliport (19 nm W)
PAWS - Wasilla Airport (21 nm NW)
PAED - Elmendorf Air Force Base (24 nm W)
PAMR - Merrill Field Airport (26 nm W)
 
Loc | Ops | Rwys | IFR | FBO | Links
Com | Nav | Svcs | Stats | Notes

Crowley
 
Area around A13 (Bold Airport)
 
Road maps at: MapQuest Bing Google
 
Aerial photo
WARNING: Photo may not be current or correct
Aerial photo of A13 (Bold Airport)
Photo by Brian Kellogg

Do you have a better or more recent aerial photo of Bold Airport that you would like to share? If so, please send us your photo.

 
Sectional chart

 
Airport distance calculator
Flying to Bold Airport? Find the distance to fly.

From to A13

Sunrise and sunset
Times for 18-Dec-2018
 Local
(UTC-9)
 Zulu
(UTC)
Morning civil twilight09:0818:08
Sunrise10:1119:11
Sunset15:3400:34
Evening civil twilight16:3701:37

Current date and time
Zulu (UTC)  18-Dec-2018 21:51:35
Local (UTC-9)  18-Dec-2018 12:51:35
 
METAR
PABV 
16nm W 
182124Z AUTO 00000KT 7SM -SN BKN006 BKN013 OVC070 M06/M07 A2904 RMK AO2 P0000 FZRANO
PAAQ 
16nm N 
182107Z 00000KT 10SM FEW006 BKN009 OVC013 M10/M11 A2901 RMK AO2 T11001111
PAFR 
19nm W 
182133Z AUTO 00000KT 3/4SM R17/4000FT PL BR VV018 M07/M08 A2898 RMK AO2 CIG 012V018 SLP824
PAED 
24nm W 
182121Z AUTO 00000KT 1 1/4SM -SN BR FEW003 M06/M06 A2902 RMK AO2 VIS 5/8V1 1/4 VIS 5/8 RWY24 SLP825
PAMR 
26nm W 
182053Z 00000KT 2SM -SN BR VV009 M06/M08 A2902 RMK AO2 SLP831 P0001 60001 T10611083 51006
PALH 
29nm W 
182053Z 35006KT 3SM -SN BR OVC055 M07/M09 A2904 RMK AO2 SNB31 SLP834 P0001 60001 T10671089 51006 $
TAF
PAAQ 
16nm N 
181735Z 1818/1918 34005KT P6SM VCSH BKN060
NOTAMs
Click for the latest NOTAMs
NOTAMs are issued by the DoD/FAA and will open in a separate window not controlled by AirNav.

 

 
 

Would you like to see your business listed on this page?

 If your business provides an interesting product or service to pilots, flight crews, aircraft, or users of the Bold Airport, you should consider listing it here.  To start the listing process, click on the button below
 
Add a business
 

Other Pages about Bold Airport

Update a link
 
Copyright © AirNav, LLC. All rights reserved. Privacy Policy  Contact